Weather History for East Milton, MA

Change the Weather History Date:

Sunday, April 21, 2013

  Actual Average (KBOS) Record (KBOS)
Temperature  
Mean Temperature 41 °F 50 °F  
Max Temperature 53 °F 58 °F 88 °F (1957)
Min Temperature 30 °F 42 °F 21 °F (1875)
Degree Days  
Heating Degree Days 24 15  
Month to date heating degree days 388  
Since 1 July heating degree days 5259  
Cooling Degree Days 0 0  
Month to date cooling degree days 0  
Year to date cooling degree days 0  
Moisture  
Dew Point 20 °F    
Average Humidity 43    
Maximum Humidity 62    
Minimum Humidity 24    
Precipitation  
Precipitation 0.00 in 0.11 in 3.32 in (1991)
Month to date precipitation 2.72  
Year to date precipitation 13.65  
Sea Level Pressure  
Sea Level Pressure 30.52 in    
Wind  
Wind Speed 12 mph (NNW)    
Max Wind Speed 20 mph    
Max Gust Speed 32 mph    
T = Trace of Precipitation, MM = Missing Value Source: NWS Daily Summary

Daily Weather History Graph

Daily Weather History Graph

Search for Another Location

Airport:

Trip Planner

Search our weather history database for the weather conditions in past years. The results will help you decide how hot, cold, wet, or windy it might be!

Date:

Astronomy

Apr. 21, 2013 Rise Set
Actual Time 5:54 AM EDT 7:32 PM EDT
Civil Twilight 5:24 AM EDT 8:02 PM EDT
Nautical Twilight 4:48 AM EDT 8:38 PM EDT
Astronomical Twilight 4:10 AM EDT 9:17 PM EDT
Moon 3:10 PM EDT (4/21) 3:19 AM EDT (4/21)
Length of Visible Light 14h 38m
Length of Day
13h 38m
Waxing Gibbous, 79% of the Moon is Illuminated
Apr 21
Waxing Gibbous
Apr 25
Full
May 2
Last Quarter
May 9
New
May 18
First Quarter

Hourly Weather History & Observations

Time (EDT) Temp. Windchill Dew Point Humidity Pressure Visibility Wind Dir Wind Speed Gust Speed Precip Events Conditions
12:54 AM 39.9 °F 30.8 °F 19.0 °F 43% 30.26 in - WNW 18.4 mph 32.2 mph N/A   Unknown
1:54 AM 37.0 °F 26.7 °F 18.0 °F 46% 30.29 in - WNW 19.6 mph 29.9 mph N/A   Unknown
2:54 AM 35.1 °F 26.9 °F 19.0 °F 52% 30.32 in - WNW 11.5 mph 21.9 mph N/A   Unknown
3:54 AM 34.0 °F 25.0 °F 18.0 °F 52% 30.35 in - NW 12.7 mph 23.0 mph N/A   Unknown
4:54 AM 33.1 °F 24.9 °F 17.1 °F 52% 30.36 in - NW 10.4 mph - N/A   Unknown
5:54 AM 30.9 °F 22.8 °F 18.0 °F 59% 30.41 in - NW 9.2 mph - N/A   Unknown
6:54 AM 33.1 °F 25.5 °F 19.0 °F 56% 30.45 in - NW 9.2 mph - N/A   Unknown
7:54 AM 36.0 °F 26.7 °F 19.0 °F 50% 30.48 in - NW 15.0 mph 23.0 mph N/A   Unknown
8:54 AM 39.0 °F 32.8 °F 17.1 °F 41% 30.50 in - NNW 9.2 mph 21.9 mph N/A   Unknown
9:54 AM 42.1 °F 38.4 °F 18.0 °F 38% 30.52 in - Variable 5.8 mph 16.1 mph N/A   Unknown
10:54 AM 43.0 °F 38.2 °F 18.0 °F 37% 30.54 in - NNW 8.1 mph 18.4 mph N/A   Unknown
11:54 AM 46.9 °F - 19.0 °F 33% 30.55 in - NNE 11.5 mph 16.1 mph N/A   Unknown
12:54 PM 48.9 °F - 19.0 °F 31% 30.56 in - NNW 8.1 mph - N/A   Unknown
1:54 PM 48.9 °F - 17.1 °F 28% 30.55 in - Variable 5.8 mph - N/A   Unknown
2:54 PM 52.0 °F - 17.1 °F 25% 30.56 in - NNW 9.2 mph 18.4 mph N/A   Unknown
3:54 PM 52.0 °F - 16.0 °F 24% 30.56 in - North 10.4 mph - N/A   Unknown
4:54 PM 51.1 °F - 19.9 °F 29% 30.57 in - Variable 6.9 mph - N/A   Unknown
5:54 PM 48.9 °F - 19.0 °F 31% 30.58 in - East 6.9 mph - N/A   Unknown
6:54 PM 46.0 °F 43.1 °F 21.9 °F 39% 30.60 in - ENE 5.8 mph - N/A   Unknown
7:54 PM 42.1 °F 36.6 °F 21.0 °F 43% 30.64 in - East 9.2 mph - N/A   Unknown
8:54 PM 39.9 °F 34.5 °F 23.0 °F 51% 30.67 in - SE 8.1 mph - N/A   Unknown
9:54 PM 37.9 °F 32.1 °F 26.1 °F 62% 30.69 in - SSE 8.1 mph - N/A   Unknown
10:54 PM 37.9 °F 32.7 °F 26.1 °F 62% 30.69 in - South 6.9 mph - N/A   Unknown
11:54 PM 39.0 °F 34.0 °F 24.1 °F 55% 30.70 in - South 6.9 mph - N/A   Unknown